This demonstration page uses our WeatherBlox Daily Observations layout. Learn more.

Left ArrowRight Arrow

Hourly Observations for August 8, 2019

Temp ( °F °C ) Dew Point ( °F °C ) Humidity (%) Winds ( mph kmh ) Pressure ( in mb ) Visibility ( mi km ) Precip ( " mm )
12:15 am 00:15 Clear 67 19.7 66 18.8 95 95 WSW 3 6 29.86 1011 10 16 0.00 0.00
12:35 am 00:35 Clear 68 20.1 66 18.8 92 92 W 5 7 29.87 1011 10 16 0.00 0.00
12:55 am 00:55 Clear 68 20 66 18.8 93 93 WSW 5 7 29.87 1011 10 16 0.00 0.00
1:15 am 01:15 Clear 67 19.7 66 18.8 95 95 W 3 6 29.88 1012 10 16 0.00 0.00
1:35 am 01:35 Clear 67 19.5 66 18.7 95 95 W 3 6 29.87 1011 10 16 0.00 0.00
1:55 am 01:55 Clear 67 19.4 66 18.8 96 96 WSW 5 7 29.87 1011 10 16 0.00 0.00
2:15 am 02:15 Clear 66 19 66 19 100 100 WSW 5 7 29.87 1012 10 16 0.00 0.00
2:35 am 02:35 Clear 65 18.6 65 18.6 100 100 Calm 29.87 1012 10 16 0.00 0.00
2:55 am 02:55 Clear 64 18 64 18 100 100 WSW 3 6 29.86 1011 10 16 0.00 0.00
3:15 am 03:15 Clear 64 17.8 64 17.8 100 100 SW 3 6 29.85 1011 10 16 0.00 0.00
3:35 am 03:35 Clear 65 18.3 65 18.3 100 100 WSW 3 6 29.85 1011 10 16 0.00 0.00
3:55 am 03:55 Clear 65 18.4 65 18.4 100 100 WSW 3 6 29.85 1011 10 16 0.00 0.00
4:15 am 04:15 Clear 65 18.3 65 18.3 100 100 W 3 6 29.85 1011 10 16 0.00 0.00
4:35 am 04:35 Clear 65 18.5 65 18.5 100 100 W 5 7 29.85 1011 10 16 0.00 0.00
4:55 am 04:55 Clear 65 18.3 65 18.3 100 100 WSW 3 6 29.85 1011 10 16 0.00 0.00
5:15 am 05:15 Clear 65 18.2 65 18.2 100 100 W 5 7 29.86 1011 10 16 0.00 0.00
5:35 am 05:35 Clear 64 18 64 18 100 100 W 3 6 29.86 1011 10 16 0.00 0.00
5:55 am 05:55 Clear 64 17.7 64 17.7 100 100 Calm 29.85 1011 10 16 0.00 0.00
6:15 am 06:15 Clear 64 17.5 64 17.5 100 100 SW 6 9 29.84 1011 10 16 0.00 0.00
6:35 am 06:35 Clear 64 17.7 64 17.7 100 100 WSW 3 6 29.85 1011 10 16 0.00 0.00
6:55 am 06:55 Partly Cloudy 64 17.6 64 17.6 100 100 N 7 11 29.86 1011 10 16 0.00 0.00
7:15 am 07:15 Mostly Cloudy 65 18.6 65 18.6 100 100 NNW 3 6 29.87 1012 10 16 0.00 0.00
7:35 am 07:35 Partly Cloudy 66 18.7 66 18.7 100 100 Calm 29.87 1012 10 16 0.00 0.00
7:55 am 07:55 Sunny 67 19.4 67 19.4 100 100 Calm 29.87 1011 10 16 0.00 0.00
8:15 am 08:15 Sunny 68 19.9 68 19.8 99 99 W 3 6 29.88 1012 10 16 0.00 0.00
8:35 am 08:35 Partly Cloudy 70 21 68 20.2 95 95 WSW 5 7 29.88 1012 10 16 0.00 0.00
8:55 am 08:55 Partly Cloudy 70 21.2 69 20.4 95 95 WSW 8 13 29.88 1012 10 16 0.00 0.00
9:15 am 09:15 Partly Cloudy 72 22.3 69 20.5 90 90 W 8 13 29.88 1012 10 16 0.00 0.00
9:35 am 09:35 Mostly Cloudy 74 23.5 69 20.6 84 84 W 9 15 29.86 1011 10 16 0.00 0.00
9:55 am 09:55 Mostly Cloudy 75 23.7 70 20.9 84 84 WSW 9 15 29.86 1011 10 16 0.00 0.00
10:15 am 10:15 Sunny 77 24.8 69 20.8 79 79 WSW 10 17 29.85 1011 10 16 0.00 0.00
10:35 am 10:35 Sunny 79 25.9 69 20.5 72 72 W 12 19 29.86 1011 10 16 0.00 0.00
10:55 am 10:55 Sunny 80 26.4 69 20.4 70 70 W 16 26 29.86 1011 10 16 0.00 0.00
11:15 am 11:15 Sunny 80 26.8 69 20.4 68 68 W 13 20 29.85 1011 10 16 0.00 0.00
11:35 am 11:35 Sunny 81 27 69 20.4 67 67 W 16 26 29.86 1011 10 16 0.00 0.00
12:15 pm 12:15 Partly Cloudy 82 27.5 69 20.3 65 65 W 18 30 29.86 1011 10 16 0.00 0.00
12:30 pm 12:30 Partly Cloudy 81 27.4 69 20.5 66 66 W 14 22 29.86 1011 10 16 0.00 0.00
12:55 pm 12:55 Partly Cloudy 82 27.8 69 20.7 65 65 W 15 24 29.86 1011 10 16 0.00 0.00
1:15 pm 13:15 Partly Cloudy 84 28.8 70 20.9 62 62 W 17 28 29.86 1011 10 16 0.00 0.00
1:35 pm 13:35 Partly Cloudy 83 28.5 70 20.9 63 63 W 10 17 29.86 1011 10 16 0.00 0.00
1:55 pm 13:55 Partly Cloudy 85 29.2 69 20.8 61 61 WSW 13 20 29.84 1010 10 16 0.00 0.00
2:15 pm 14:15 Partly Cloudy 85 29.6 69 20.5 58 58 W 12 19 29.84 1010 10 16 0.00 0.00
2:35 pm 14:35 Partly Cloudy 85 29.5 68 20.2 57 57 WSW 13 20 29.84 1010 10 16 0.00 0.00
2:55 pm 14:55 Partly Cloudy 86 30.2 69 20.4 56 56 W 12 19 29.83 1010 10 16 0.00 0.00
3:15 pm 15:15 Mostly Cloudy 87 30.3 70 21.1 58 58 W 16 26 29.83 1010 10 16 0.00 0.00
3:35 pm 15:35 Partly Cloudy 84 28.8 68 20.2 60 60 WSW 12 19 29.83 1010 10 16 0.00 0.00
3:55 pm 15:55 Mostly Cloudy 83 28.1 69 20.5 63 63 W 14 22 29.83 1010 10 16 0.00 0.00
4:15 pm 16:15 Cloudy 79 25.9 75 23.7 88 88 W 12 19 29.84 1010 3 5 0.06 1.52
4:35 pm 16:35 Partly Cloudy 82 27.6 74 23.2 77 77 SW 6 9 29.82 1010 10 16 0.06 1.52
4:55 pm 16:55 Mostly Cloudy with Light Rain 80 26.8 73 22.6 78 78 WSW 14 22 29.81 1010 10 16 0.06 1.52
5:15 pm 17:15 Cloudy with Light Rain 73 23 68 20.2 84 84 N 8 13 29.85 1011 5 8 0.15 3.81
5:35 pm 17:35 Mostly Cloudy with Nearby Thunderstorms 73 22.9 70 21 89 89 SW 13 20 29.85 1011 10 16 0.15 3.81
5:55 pm 17:55 Cloudy 70 21 70 21 100 100 SW 8 13 29.84 1011 3 4 0.31 7.87
6:15 pm 18:15 Cloudy 69 20.5 69 20.5 100 100 S 14 22 29.85 1011 3 5 0.14 3.56
6:35 pm 18:35 Mostly Cloudy with Nearby Thunderstorms 71 21.6 70 21.3 98 98 WSW 10 17 29.85 1011 10 16 0.14 3.56
6:55 pm 18:55 Partly Cloudy 72 22 72 22 100 100 WSW 8 13 29.85 1011 10 16 0.14 3.56
7:15 pm 19:15 Sunny 73 22.7 72 22.2 97 97 WSW 13 20 29.86 1011 10 16 0.00 0.00
7:35 pm 19:35 Sunny 72 22.3 72 22.2 99 99 WSW 8 13 29.85 1011 10 16 0.00 0.00
8:15 pm 20:15 Sunny 71 21.7 70 21.1 96 96 WSW 6 9 29.85 1011 10 16 0.00 0.00
8:35 pm 20:35 Sunny 70 21.2 70 21.2 100 100 WSW 3 6 29.85 1011 10 16 0.00 0.00
8:55 pm 20:55 Clear 69 20.6 69 20.6 100 100 SW 5 7 29.86 1011 10 16 0.00 0.00
9:15 pm 21:15 Clear 69 20.6 69 20.6 100 100 WSW 5 7 29.86 1011 10 16 0.00 0.00
9:35 pm 21:35 Clear 69 20.3 69 20.3 100 100 SW 6 9 29.87 1011 10 16 0.00 0.00
9:55 pm 21:55 Clear 69 20.5 69 20.5 100 100 SW 7 11 29.87 1012 10 16 0.00 0.00
10:15 pm 22:15 Clear 68 20.2 68 20.2 100 100 WSW 5 7 29.88 1012 10 16 0.00 0.00
10:35 pm 22:35 Clear 68 20.2 68 20.2 100 100 W 3 6 29.88 1012 10 16 0.00 0.00
10:55 pm 22:55 Clear 68 20 68 20 100 100 WSW 5 7 29.89 1012 10 16 0.00 0.00
11:15 pm 23:15 Clear 68 20 68 20 100 100 W 5 7 29.88 1012 10 16 0.00 0.00
11:35 pm 23:35 Clear 68 20 68 20 100 100 WSW 5 7 29.88 1012 10 16 0.00 0.00
11:55 pm 23:55 Clear 68 20 68 20 100 100 WSW 6 9 29.89 1012 10 16 0.00 0.00

Powered by AerisWeather